Starlink 1876

operational
NORAD ID: 47161 Int'l Des: 2020-088 Owner: SPXS Country: US Constellation: starlink
LEOCIRCULARSTARLINK_TYPE

Starlink 1876について

説明を読み込み中...

リアルタイム位置

3D地球を読み込み中...

次回通過

高度履歴

Altitude vs Time

uPlot chart will show altitude changes over time

軌道要素

1 47161U 20088AR 25306.52114368 -.00001184 00000-0 -60572-4 0 9993
2 47161 53.0517 142.4958 0002393 90.5617 269.5646 15.06398669272811
Epoch: Nov 2, 2025 • Age: 26 hours

現在のステータス

高度 555.9 km
速度 7.58 km/s
衛星直下点 -26.60°S, 72.49°E
打ち上げ日 Nov 25, 2020
運用期間 4.9 years
タイプ internet

技術仕様

分類 Payload
質量 260.00 kg
乾燥質量 248.00 kg
総質量 260.00 kg
長さ 0.20 m
直径 2.80 m
スパン 9.00 m
形状 Box + pan
製造者 SPXS
バスタイプ Starlink
フェーズステータス In Orbit
所有者/国 SPXS/US

大規模コンステレーション

Loading constellations...